Location: Bergnerzell
(49.1816°N, 10.2565°E)
Time: 02:13:25
(UTC+00:00)

BREEZE-M DEB (TANK) - Pass Details

Date: 23 May 2024
Orbit: 291 x 16914 km, 49.4° (Epoch: 13 June)

Event Time Altitude Azimuth Distance (km) Brightness Sun altitude
Exits shadow 00:09:29 44° 209° (SSW) 867 3.3 -19.2°
Maximum altitude 00:09:43 44° 198° (SSW) 891 3.4 -19.2°
Drops below altitude 10° 00:17:07 10° 128° (SE) 4,030 7.0 -18.9°
Sets 00:23:38 0° 125° (SE) 6,867 8.2 -18.6°
